Vertical_Velocity
1 1 1 1 0 0 0 0 0 0 0 0 -0 -0 -0 -0 -0 -0 -1 -1 -1 -1 -1 -0 0 0 0 1 1 1 -0 -1 -1 -0 -0 -0 0 0 1 1 1 1 2 1 1 0 1 1 0 -1 -4 -3 -2 -2 -1 -2 -2 -2 -3 -3 -4 -5 -6 -6 -4 -2 0 1 1 -1 -2 -3 -2 -1 1 1 -0 -2 -4 -4 -3 -3 -2 -2 -2 -1 0 1 2 2 1 -0 -1 -1 -1 -0 1 1 1 0 0 1 1
1 1 1 1 1 1 0 0 1 1 0 0 0 0 0 0 -0 -0 -1 -1 -1 -1 -1 -1 -1 -0 -0 1 1 1 1 1 1 1 1 1 1 1 1 1 2 2 3 3 3 3 4 4 2 0 -1 -2 -3 -3 -2 -2 -1 -1 -1 -2 -2 -3 -4 -6 -7 -6 -4 -1 1 1 -1 -2 -3 -2 -1 0 0 -0 -2 -4 -4 -4 -3 -3 -3 -2 -1 1 2 2 2 0 -0 -1 -1 -1 0 1 1 1 0 0 1
1 1 1 1 1 1 1 1 1 1 1 0 0 0 0 0 0 0 -0 -0 -0 -0 -0 -0 -1 -1 -1 -0 0 1 1 1 1 2 2 1 1 2 2 2 2 3 3 3 3 4 6 6 5 3 3 1 0 -1 -2 -2 -2 -2 -2 -1 -1 -2 -3 -4 -5 -7 -7 -5 -2 0 1 0 -1 -2 -3 -2 -1 -0 -1 -2 -3 -4 -4 -3 -3 -2 -2 -0 2 3 2 1 0 -0 -1 -1 -0 0 1 1 1 1 1
0 0 1 1 1 1 1 0 0 1 0 0 0 0 0 0 0 0 -0 -0 -0 -0 -0 -0 -0 -1 -1 -1 -1 -1 -1 -0 0 1 1 1 1 1 1 1 2 3 3 3 3 4 6 7 6 5 5 5 4 3 1 1 -0 -1 -2 -1 -1 -2 -2 -2 -3 -4 -6 -7 -6 -4 -0 1 1 -1 -3 -3 -3 -2 -1 -1 -1 -2 -3 -3 -3 -3 -3 -1 0 2 3 2 1 0 -0 -1 -1 -0 0 1 1 1 1
-0 -0 -0 0 0 0 0 0 0 0 -0 -0 -0 -0 -0 -0 -0 -0 -0 -0 -0 -0 -0 -0 -1 -1 -1 -1 -2 -2 -2 -2 -1 -1 -0 0 0 0 1 1 1 2 3 3 3 3 5 7 6 5 5 6 6 5 5 4 4 3 1 0 -0 -1 -3 -2 -3 -3 -4 -6 -7 -7 -5 -1 1 1 -1 -3 -4 -3 -2 -1 -0 -0 -1 -2 -3 -4 -3 -2 -1 1 2 3 2 1 0 -0 -1 -1 -0 1 1 1 0
-0 -1 -1 -1 -1 -1 -1 -1 -0 -0 -1 -1 -1 -1 -1 -1 -1 -1 -1 -1 -1 -1 -1 -1 -1 -1 -2 -2 -2 -3 -3 -3 -3 -3 -3 -2 -1 -1 -1 -1 -0 0 1 1 1 2 4 6 6 5 5 5 5 5 5 6 6 6 5 4 3 1 -0 -2 -3 -3 -4 -4 -4 -6 -7 -6 -3 -0 0 -1 -3 -3 -3 -2 -1 0 1 -0 -2 -4 -4 -4 -2 -1 1 2 2 2 1 0 -0 -0 -0 1 1 1 0
-0 -1 -1 -1 -1 -1 -1 -1 -1 -1 -1 -2 -2 -2 -1 -1 -2 -2 -2 -2 -2 -2 -1 -2 -2 -2 -2 -2 -3 -3 -4 -4 -4 -4 -4 -4 -3 -3 -2 -2 -2 -1 -1 -1 -1 -0 1 4 4 4 4 5 5 5 5 6 6 6 6 6 5 4 3 1 -1 -3 -4 -3 -3 -3 -5 -6 -6 -5 -2 -0 -1 -2 -3 -2 -1 -0 1 1 -0 -2 -4 -4 -4 -2 -1 1 2 2 2 1 0 -0 -0 0 0 0 0
-1 -1 -1 -1 -2 -2 -2 -2 -2 -2 -2 -2 -2 -2 -2 -2 -2 -2 -2 -2 -2 -2 -1 -2 -2 -2 -2 -2 -3 -3 -3 -4 -4 -4 -4 -4 -4 -4 -4 -3 -3 -2 -2 -2 -2 -2 -2 1 2 2 2 3 4 4 4 6 6 6 6 6 6 5 5 4 2 -0 -2 -2 -2 -2 -3 -5 -6 -7 -5 -2 -1 -1 -2 -2 -1 -1 -0 0 0 -1 -3 -4 -4 -4 -2 -0 1 2 3 2 1 -0 -0 -0 -0 0 0
-1 -1 -1 -2 -2 -2 -2 -3 -3 -3 -3 -3 -3 -3 -2 -2 -2 -2 -2 -2 -2 -1 -1 -1 -1 -1 -1 -2 -2 -2 -3 -3 -3 -3 -4 -4 -4 -4 -4 -4 -4 -3 -3 -3 -3 -3 -3 -2 -1 -0 0 1 1 1 3 4 5 5 5 5 5 5 5 5 4 3 0 -0 -1 -1 -2 -3 -4 -6 -7 -5 -3 -1 -0 -1 -2 -1 -1 -1 -0 -0 -1 -3 -4 -4 -3 -1 0 1 2 2 1 0 -0 -0 -0 -0 0
-1 -1 -2 -2 -2 -2 -2 -3 -3 -3 -3 -3 -3 -3 -3 -2 -2 -2 -2 -2 -1 -1 -1 -1 -1 -1 -1 -1 -1 -2 -2 -2 -2 -2 -3 -3 -4 -4 -4 -4 -4 -4 -4 -4 -4 -4 -4 -3 -3 -2 -2 -1 -1 -1 1 2 3 4 4 4 3 3 3 4 5 4 3 2 1 -0 -2 -2 -3 -4 -5 -6 -4 -2 -1 -1 -2 -2 -3 -2 -1 -0 0 -1 -2 -4 -4 -3 -1 0 1 2 2 2 1 -0 -0 -0 -0
-2 -2 -2 -2 -2 -2 -2 -3 -3 -3 -3 -3 -3 -3 -2 -2 -2 -2 -2 -2 -1 -1 -1 -0 -0 -0 -0 -1 -1 -2 -2 -2 -2 -2 -2 -3 -3 -4 -4 -4 -4 -4 -4 -4 -4 -4 -4 -4 -4 -4 -4 -3 -3 -2 -0 0 1 2 1 2 1 1 1 3 3 3 4 4 3 1 -0 -1 -1 -1 -2 -4 -4 -4 -2 -2 -2 -3 -4 -3 -1 -0 0 0 -1 -2 -4 -4 -3 -1 0 1 2 2 2 1 -0 -0 -0
-2 -2 -3 -3 -3 -3 -3 -3 -3 -3 -3 -3 -3 -2 -2 -2 -2 -2 -2 -2 -2 -2 -1 -1 -1 -0 -0 -1 -1 -2 -3 -3 -3 -3 -3 -3 -4 -4 -4 -4 -5 -5 -5 -5 -5 -5 -5 -4 -5 -5 -5 -5 -5 -4 -3 -1 -0 0 -0 0 -1 -1 0 1 1 1 2 3 3 3 2 0 -0 -0 0 -1 -3 -5 -5 -3 -2 -2 -3 -3 -2 -1 0 0 -0 -1 -3 -4 -4 -3 -1 -0 1 2 3 1 0 -0 -1
-2 -3 -3 -3 -4 -4 -4 -3 -3 -3 -3 -3 -2 -2 -2 -2 -1 -1 -2 -2 -2 -2 -2 -2 -2 -1 -1 -1 -2 -3 -4 -4 -5 -5 -5 -5 -5 -5 -5 -5 -5 -6 -6 -6 -6 -6 -6 -5 -6 -6 -6 -6 -6 -6 -6 -4 -2 -1 -1 -1 -2 -2 -1 -1 -1 -1 -0 1 2 3 2 2 1 1 1 1 -1 -4 -5 -4 -3 -2 -3 -3 -3 -2 -0 -0 -0 -1 -2 -3 -4 -4 -3 -2 -0 1 2 1 1 0 -0
-3 -3 -3 -3 -4 -4 -4 -3 -3 -3 -3 -3 -2 -2 -2 -2 -2 -1 -2 -2 -2 -3 -3 -3 -3 -3 -2 -2 -2 -3 -4 -5 -6 -6 -6 -6 -6 -6 -6 -6 -6 -6 -7 -7 -7 -7 -7 -7 -7 -6 -7 -7 -7 -6 -7 -6 -5 -4 -3 -3 -3 -3 -2 -2 -2 -2 -2 -1 -0 1 1 2 2 2 2 2 1 -1 -4 -5 -5 -4 -3 -3 -3 -3 -2 -1 -0 -0 -1 -2 -4 -5 -5 -3 -1 -0 1 1 1 1 -0
-3 -3 -3 -3 -3 -3 -3 -3 -3 -3 -3 -3 -3 -2 -2 -2 -2 -2 -2 -2 -3 -3 -4 -4 -4 -4 -4 -3 -3 -3 -4 -5 -6 -6 -7 -7 -7 -7 -7 -7 -7 -7 -7 -8 -8 -8 -8 -9 -8 -8 -8 -8 -8 -8 -8 -8 -8 -8 -6 -6 -6 -5 -3 -3 -3 -3 -3 -3 -2 -2 -1 0 1 2 2 2 2 1 -1 -4 -5 -5 -4 -3 -2 -3 -3 -2 -1 -0 -0 -1 -3 -5 -6 -4 -3 -1 -0 1 1 1 0
-3 -3 -3 -3 -3 -2 -2 -2 -2 -3 -3 -3 -3 -3 -3 -3 -3 -3 -3 -3 -3 -4 -4 -4 -5 -5 -5 -4 -4 -4 -3 -4 -4 -5 -6 -6 -6 -6 -6 -6 -6 -6 -6 -7 -8 -8 -8 -9 -9 -9 -9 -9 -10 -10 -9 -9 -9 -10 -10 -9 -9 -8 -6 -5 -4 -4 -3 -3 -3 -4 -3 -2 -1 0 1 2 2 2 1 -1 -4 -5 -6 -4 -2 -2 -3 -3 -2 -0 0 -1 -2 -4 -5 -5 -3 -2 -1 -0 1 1 1
-3 -3 -3 -3 -2 -2 -2 -2 -2 -2 -2 -3 -3 -3 -3 -4 -4 -4 -4 -4 -4 -4 -4 -4 -5 -5 -5 -5 -4 -4 -3 -3 -3 -3 -4 -4 -5 -5 -5 -5 -5 -5 -5 -5 -6 -6 -7 -8 -8 -8 -9 -9 -10 -10 -10 -10 -10 -11 -11 -11 -11 -10 -8 -7 -6 -5 -4 -4 -4 -4 -4 -4 -3 -2 -1 0 1 1 1 1 -1 -4 -5 -4 -3 -2 -2 -3 -3 -1 0 -0 -1 -3 -4 -4 -3 -2 -2 -1 -0 1 1
-4 -3 -3 -3 -3 -2 -2 -2 -2 -2 -3 -3 -3 -3 -3 -4 -4 -4 -5 -5 -5 -5 -5 -5 -5 -5 -5 -4 -4 -4 -3 -3 -2 -2 -2 -2 -3 -3 -4 -4 -4 -4 -4 -4 -4 -4 -5 -6 -7 -7 -7 -8 -9 -10 -9 -9 -10 -12 -12 -12 -13 -12 -11 -10 -9 -7 -6 -5 -5 -5 -5 -5 -4 -4 -3 -2 -1 -0 1 1 0 -1 -4 -4 -4 -3 -2 -2 -3 -2 -1 -0 -0 -1 -2 -3 -3 -3 -2 -2 -1 0 1
-4 -4 -3 -3 -3 -3 -3 -3 -3 -3 -3 -3 -3 -3 -3 -4 -4 -4 -4 -5 -5 -5 -5 -5 -5 -5 -5 -4 -4 -4 -4 -3 -3 -3 -2 -2 -2 -2 -3 -3 -3 -3 -3 -3 -4 -4 -5 -5 -5 -6 -7 -7 -8 -9 -8 -8 -9 -10 -11 -12 -13 -13 -13 -12 -11 -10 -9 -7 -7 -6 -6 -6 -5 -5 -5 -4 -3 -2 -1 -0 0 0 -2 -3 -4 -4 -4 -2 -2 -2 -2 -1 -0 -1 -2 -2 -3 -3 -3 -2 -1 -1 0
-3 -3 -3 -3 -3 -3 -3 -3 -3 -3 -3 -3 -3 -3 -3 -3 -3 -4 -4 -4 -4 -4 -4 -4 -4 -5 -5 -5 -5 -4 -4 -4 -4 -4 -3 -3 -4 -4 -4 -4 -4 -4 -5 -4 -4 -5 -6 -5 -5 -6 -7 -6 -6 -6 -6 -6 -7 -8 -9 -11 -12 -13 -14 -14 -14 -13 -12 -10 -9 -8 -7 -7 -7 -7 -6 -5 -5 -4 -3 -2 -1 -0 -1 -2 -4 -4 -5 -4 -2 -2 -3 -2 -1 -1 -1 -2 -3 -3 -4 -3 -2 -1 0
-3 -3 -3 -3 -3 -3 -3 -3 -3 -4 -4 -4 -3 -3 -3 -3 -3 -3 -2 -3 -3 -4 -4 -4 -4 -4 -5 -5 -5 -5 -5 -4 -4 -5 -4 -4 -4 -5 -6 -6 -5 -6 -7 -7 -6 -7 -8 -7 -7 -6 -6 -7 -6 -5 -4 -4 -5 -6 -7 -9 -11 -12 -14 -15 -15 -15 -14 -13 -11 -10 -8 -8 -8 -8 -7 -6 -6 -5 -5 -4 -3 -1 -1 -2 -3 -4 -5 -5 -4 -3 -3 -3 -3 -2 -1 -2 -2 -3 -4 -3 -2 -1 -0
-3 -3 -3 -3 -3 -3 -3 -3 -3 -3 -4 -3 -3 -3 -3 -2 -2 -2 -2 -2 -3 -3 -3 -3 -4 -4 -4 -5 -5 -6 -6 -5 -5 -5 -6 -5 -5 -5 -7 -8 -8 -7 -8 -9 -9 -9 -10 -9 -9 -8 -7 -7 -6 -4 -2 -3 -4 -4 -5 -8 -10 -11 -13 -14 -15 -15 -15 -14 -12 -11 -10 -9 -8 -8 -8 -8 -7 -6 -6 -5 -4 -3 -2 -2 -2 -3 -4 -5 -5 -4 -3 -3 -3 -3 -1 -1 -2 -3 -4 -3 -2 -1 -0
-3 -3 -3 -3 -3 -3 -3 -3 -3 -2 -3 -3 -2 -2 -3 -2 -2 -2 -2 -2 -2 -3 -3 -3 -4 -4 -4 -4 -5 -5 -6 -7 -6 -6 -7 -8 -8 -7 -6 -9 -10 -10 -9 -10 -11 -12 -11 -11 -11 -10 -8 -8 -6 -4 -1 -2 -3 -3 -4 -6 -8 -9 -10 -12 -13 -14 -14 -14 -12 -11 -10 -9 -8 -8 -8 -8 -8 -7 -6 -6 -5 -5 -4 -3 -3 -2 -3 -4 -5 -5 -4 -3 -3 -3 -3 -2 -2 -2 -3 -3 -2 -1 -1
-4 -3 -4 -3 -3 -3 -3 -3 -2 -2 -2 -2 -2 -2 -3 -2 -2 -2 -3 -3 -3 -3 -4 -4 -4 -5 -5 -5 -5 -5 -6 -8 -8 -8 -7 -8 -10 -11 -9 -9 -10 -11 -12 -11 -11 -12 -13 -13 -12 -10 -9 -9 -8 -5 -2 -3 -3 -3 -3 -5 -6 -7 -8 -9 -10 -11 -12 -12 -12 -11 -10 -10 -9 -8 -8 -7 -7 -7 -6 -6 -6 -5 -5 -4 -3 -3 -3 -3 -4 -5 -5 -3 -3 -3 -3 -2 -2 -2 -3 -3 -3 -2 -2
-4 -4 -4 -3 -3 -3 -3 -2 -2 -3 -2 -2 -2 -2 -3 -3 -3 -3 -3 -3 -4 -4 -4 -4 -5 -5 -5 -6 -6 -6 -6 -8 -9 -10 -10 -9 -9 -11 -13 -12 -11 -11 -12 -12 -12 -12 -13 -14 -13 -12 -10 -9 -9 -8 -5 -4 -3 -4 -4 -4 -4 -5 -5 -6 -8 -9 -10 -10 -10 -10 -9 -9 -8 -8 -7 -6 -6 -6 -6 -6 -5 -5 -5 -4 -3 -3 -3 -2 -3 -4 -6 -4 -2 -1 -2 -2 -2 -1 -2 -3 -3 -3 -2
-4 -4 -4 -3 -3 -3 -3 -2 -2 -3 -3 -2 -2 -2 -3 -4 -4 -3 -3 -4 -4 -4 -5 -5 -6 -6 -6 -6 -7 -8 -7 -7 -8 -10 -12 -11 -10 -10 -12 -14 -13 -12 -12 -13 -13 -13 -12 -13 -13 -12 -12 -10 -10 -9 -8 -6 -4 -4 -4 -4 -4 -4 -4 -4 -5 -6 -7 -8 -8 -8 -8 -8 -8 -7 -6 -6 -5 -5 -4 -4 -4 -4 -4 -3 -3 -3 -2 -2 -3 -4 -5 -5 -3 -1 -1 -1 -1 -1 -1 -1 -2 -3 -3
-4 -4 -4 -4 -3 -3 -3 -3 -3 -3 -3 -3 -2 -2 -2 -4 -4 -4 -4 -4 -4 -4 -5 -6 -6 -6 -8 -6 -7 -8 -8 -8 -8 -10 -10 -12 -12 -11 -10 -13 -14 -14 -13 -14 -14 -14 -12 -11 -11 -11 -12 -12 -12 -11 -10 -8 -6 -5 -4 -4 -4 -3 -3 -3 -4 -4 -5 -6 -7 -7 -7 -7 -7 -6 -6 -6 -4 -3 -3 -3 -3 -3 -2 -2 -2 -2 -2 -2 -2 -3 -4 -5 -3 -2 -0 -1 -1 -0 0 -0 -1 -2 -3
-4 -4 -4 -4 -4 -3 -3 -3 -3 -3 -4 -4 -4 -3 -2 -4 -5 -6 -4 -5 -5 -5 -5 -6 -7 -7 -8 -8 -8 -8 -8 -8 -9 -10 -10 -11 -12 -12 -10 -12 -14 -15 -14 -14 -14 -14 -13 -12 -11 -11 -12 -13 -14 -13 -11 -9 -7 -6 -5 -5 -4 -4 -3 -3 -3 -3 -4 -4 -5 -5 -6 -6 -5 -6 -6 -5 -4 -3 -2 -2 -2 -2 -2 -1 -1 -1 -2 -2 -2 -2 -3 -4 -4 -3 -1 -0 -0 -0 0 0 -0 -2 -3
-4 -4 -3 -3 -4 -4 -4 -3 -4 -4 -4 -4 -4 -5 -5 -3 -4 -5 -6 -5 -5 -5 -6 -6 -7 -7 -8 -8 -9 -9 -9 -8 -8 -10 -11 -11 -12 -12 -11 -12 -14 -15 -14 -13 -12 -12 -11 -11 -12 -12 -11 -13 -14 -14 -12 -10 -8 -7 -6 -6 -5 -5 -4 -4 -3 -2 -2 -3 -3 -4 -4 -4 -5 -5 -5 -5 -5 -4 -2 -1 -1 -1 -1 -0 -0 -0 -0 -0 -0 -0 -2 -3 -4 -3 -2 -0 0 0 0 1 0 -1 -3
-4 -4 -3 -3 -3 -3 -4 -4 -4 -4 -4 -4 -4 -5 -6 -5 -4 -4 -5 -6 -6 -6 -6 -6 -7 -8 -8 -9 -9 -10 -11 -9 -8 -8 -10 -11 -12 -13 -12 -12 -14 -16 -17 -14 -13 -11 -10 -9 -10 -12 -12 -13 -13 -13 -13 -11 -9 -8 -7 -7 -6 -6 -5 -4 -3 -2 -2 -2 -2 -2 -3 -4 -4 -4 -4 -5 -5 -5 -4 -2 -1 -1 -0 -0 0 1 1 1 2 1 -0 -2 -3 -3 -2 -0 1 1 0 1 1 -0 -2
-4 -4 -3 -3 -4 -4 -3 -3 -4 -4 -4 -4 -4 -5 -6 -6 -6 -6 -5 -5 -6 -7 -7 -8 -8 -8 -9 -9 -10 -10 -11 -10 -9 -8 -9 -9 -11 -13 -14 -11 -11 -13 -16 -15 -14 -12 -10 -9 -10 -11 -12 -12 -13 -13 -12 -11 -10 -9 -7 -7 -7 -7 -6 -5 -4 -3 -2 -1 -1 -2 -2 -3 -3 -3 -4 -4 -5 -6 -6 -3 -2 -1 -1 -1 0 1 3 3 2 2 1 -0 -2 -2 -2 -1 0 1 1 1 1 0 -1
-3 -3 -4 -4 -4 -4 -4 -4 -4 -5 -5 -4 -5 -6 -6 -6 -6 -6 -7 -6 -6 -7 -8 -8 -8 -9 -9 -11 -11 -11 -10 -9 -8 -9 -10 -9 -9 -11 -15 -15 -13 -12 -12 -12 -12 -12 -11 -10 -11 -11 -11 -11 -12 -13 -12 -11 -11 -10 -8 -8 -7 -7 -7 -6 -4 -3 -2 -2 -2 -2 -2 -2 -3 -3 -4 -4 -4 -5 -6 -5 -3 -2 -1 -1 -0 1 3 3 3 3 3 1 -0 -2 -2 -2 -1 1 2 2 1 1 0
-3 -3 -4 -4 -4 -4 -5 -5 -5 -5 -5 -5 -5 -6 -7 -7 -7 -7 -7 -8 -8 -8 -8 -9 -9 -9 -8 -10 -12 -12 -11 -10 -8 -8 -10 -11 -10 -9 -10 -13 -14 -13 -12 -10 -10 -10 -12 -11 -11 -11 -11 -11 -12 -12 -12 -12 -11 -10 -9 -8 -7 -7 -6 -5 -4 -4 -3 -3 -3 -3 -3 -3 -3 -4 -4 -4 -4 -5 -6 -6 -5 -4 -2 -1 -1 1 2 3 4 4 4 3 1 0 -1 -1 -1 1 2 3 3 2 1
-4 -4 -4 -4 -4 -4 -5 -5 -6 -6 -6 -6 -6 -6 -7 -8 -8 -8 -8 -8 -9 -9 -9 -9 -10 -11 -10 -9 -10 -11 -11 -10 -9 -8 -7 -11 -13 -12 -10 -11 -12 -12 -11 -10 -8 -8 -10 -11 -11 -11 -11 -11 -11 -11 -11 -12 -12 -11 -10 -9 -8 -6 -5 -4 -4 -4 -4 -4 -4 -5 -5 -4 -4 -4 -4 -4 -4 -4 -5 -6 -6 -5 -4 -2 -1 -0 0 2 3 5 5 4 3 2 1 -0 0 1 3 4 4 3 2
-3 -4 -4 -4 -5 -5 -5 -5 -6 -6 -6 -6 -6 -6 -6 -7 -8 -8 -8 -9 -10 -10 -10 -10 -10 -11 -12 -11 -10 -10 -11 -9 -9 -8 -6 -7 -10 -14 -14 -13 -12 -11 -10 -9 -8 -7 -7 -9 -10 -11 -11 -10 -10 -10 -10 -11 -12 -12 -12 -10 -8 -6 -4 -4 -4 -4 -4 -5 -5 -6 -5 -5 -5 -4 -4 -4 -4 -4 -4 -5 -6 -6 -5 -4 -2 -1 -1 1 4 5 6 6 5 4 3 2 2 3 4 5 4 2 0
-4 -4 -4 -5 -5 -6 -6 -6 -6 -6 -7 -7 -7 -7 -7 -7 -8 -8 -9 -9 -10 -10 -11 -11 -11 -11 -11 -11 -11 -11 -12 -10 -9 -9 -9 -7 -7 -9 -12 -13 -13 -12 -10 -9 -8 -7 -7 -8 -9 -11 -12 -11 -10 -9 -9 -10 -11 -12 -12 -10 -8 -6 -4 -4 -4 -4 -4 -5 -5 -6 -6 -5 -4 -4 -4 -4 -4 -4 -4 -4 -5 -6 -6 -4 -2 -1 0 2 4 6 7 6 6 5 5 4 4 4 4 3 2 0 -2
-4 -4 -4 -5 -5 -6 -7 -7 -7 -7 -7 -8 -8 -8 -8 -8 -8 -8 -8 -9 -9 -9 -10 -10 -10 -11 -12 -11 -10 -10 -11 -11 -10 -9 -9 -10 -10 -9 -9 -11 -11 -11 -10 -10 -8 -7 -7 -8 -9 -10 -11 -11 -10 -9 -8 -9 -10 -11 -12 -10 -8 -6 -5 -5 -5 -5 -5 -5 -5 -5 -5 -4 -4 -3 -3 -3 -3 -3 -3 -3 -4 -5 -6 -4 -2 -0 1 2 3 4 5 6 7 7 7 7 6 5 3 2 0 -0 -1
-4 -5 -5 -5 -5 -6 -6 -7 -8 -8 -8 -8 -9 -8 -7 -8 -8 -8 -7 -9 -9 -9 -8 -9 -10 -9 -9 -10 -11 -11 -8 -9 -9 -9 -7 -9 -11 -12 -11 -11 -11 -10 -9 -9 -8 -7 -6 -8 -9 -10 -11 -11 -10 -9 -8 -8 -9 -10 -10 -9 -8 -6 -6 -7 -7 -7 -6 -6 -5 -5 -4 -3 -2 -2 -2 -2 -3 -3 -3 -3 -3 -3 -4 -4 -3 -1 1 1 1 1 2 5 6 7 9 9 8 6 3 1 1 2 3
-4 -4 -5 -6 -6 -6 -6 -7 -8 -8 -8 -9 -9 -9 -8 -8 -9 -9 -7 -8 -9 -10 -8 -9 -10 -11 -10 -8 -10 -13 -12 -8 -8 -9 -8 -6 -8 -11 -11 -10 -10 -10 -10 -8 -8 -8 -7 -8 -9 -10 -11 -11 -10 -10 -9 -9 -9 -10 -10 -8 -7 -6 -6 -7 -8 -9 -9 -8 -7 -6 -4 -3 -2 -1 -1 -2 -3 -4 -4 -3 -3 -3 -3 -4 -4 -3 -1 0 -0 -1 0 3 5 7 10 10 9 6 3 3 3 4 5
-5 -4 -5 -5 -6 -6 -6 -7 -7 -8 -9 -9 -10 -10 -10 -8 -8 -9 -9 -8 -9 -10 -10 -7 -8 -11 -15 -11 -10 -11 -16 -11 -8 -8 -11 -7 -7 -8 -11 -10 -9 -9 -10 -9 -8 -7 -8 -8 -9 -10 -11 -11 -10 -10 -9 -9 -9 -9 -9 -7 -6 -5 -6 -8 -9 -10 -11 -11 -10 -8 -5 -3 -2 -1 -1 -1 -2 -4 -5 -4 -4 -3 -3 -4 -5 -4 -2 -1 -1 -0 1 3 6 9 12 12 10 9 7 6 6 6 7
-5 -5 -4 -5 -5 -6 -6 -7 -7 -8 -8 -9 -10 -10 -11 -10 -8 -8 -8 -8 -9 -10 -12 -10 -7 -7 -10 -14 -12 -11 -13 -13 -9 -7 -9 -9 -8 -7 -8 -9 -9 -8 -9 -9 -8 -8 -7 -8 -10 -11 -12 -11 -10 -9 -9 -9 -9 -9 -8 -6 -4 -4 -5 -8 -10 -11 -13 -13 -12 -11 -8 -5 -3 -1 -0 -0 -1 -3 -5 -6 -5 -4 -3 -3 -3 -2 -1 1 2 3 4 6 9 12 13 12 12 11 11 10 10 9 8
-6 -6 -5 -5 -6 -6 -6 -6 -7 -7 -8 -9 -10 -10 -10 -10 -9 -8 -7 -7 -8 -10 -11 -11 -10 -9 -7 -10 -11 -11 -11 -13 -11 -7 -4 -7 -8 -8 -7 -7 -7 -6 -7 -8 -8 -7 -7 -8 -10 -11 -12 -12 -11 -10 -9 -9 -9 -9 -8 -5 -3 -2 -4 -7 -9 -11 -13 -14 -14 -13 -11 -7 -4 -2 -0 1 0 -1 -4 -6 -6 -4 -1 0 1 1 2 4 5 5 5 5 7 10 12 11 11 11 11 11 10 10 9
-5 -5 -6 -6 -6 -6 -6 -6 -7 -7 -8 -9 -9 -10 -10 -10 -9 -8 -8 -6 -7 -9 -12 -10 -10 -11 -12 -12 -13 -12 -10 -12 -12 -10 -6 -5 -5 -6 -7 -8 -7 -5 -3 -6 -7 -7 -6 -8 -9 -10 -12 -12 -12 -11 -9 -9 -9 -9 -7 -5 -2 -1 -3 -6 -8 -10 -12 -12 -13 -13 -12 -9 -6 -3 -0 1 1 0 -3 -6 -6 -4 -0 2 3 4 4 4 4 4 3 3 4 6 8 9 10 10 10 9 9 9 9
-5 -5 -5 -5 -6 -6 -7 -6 -7 -7 -8 -8 -9 -9 -9 -10 -9 -9 -9 -8 -6 -7 -11 -11 -10 -9 -11 -14 -16 -16 -14 -11 -11 -11 -10 -9 -7 -5 -3 -5 -9 -10 -5 -2 -4 -6 -7 -7 -8 -10 -11 -11 -12 -11 -10 -9 -9 -8 -7 -4 -2 -1 -2 -5 -8 -10 -10 -11 -12 -12 -12 -10 -7 -4 -0 1 2 1 -1 -4 -5 -4 -1 2 4 4 3 2 2 2 2 3 4 4 5 6 8 9 9 8 8 8 7
-6 -6 -6 -6 -6 -6 -7 -7 -7 -7 -7 -8 -8 -8 -9 -9 -9 -10 -9 -9 -7 -6 -7 -11 -11 -10 -10 -10 -12 -14 -16 -13 -10 -9 -8 -8 -10 -11 -9 1 0 -6 -13 -6 -3 -4 -7 -6 -7 -9 -10 -11 -11 -11 -11 -10 -9 -8 -7 -4 -1 -0 -2 -5 -7 -9 -9 -9 -10 -10 -10 -10 -8 -5 -1 1 2 2 1 -2 -4 -4 -2 1 3 4 3 1 1 1 2 2 2 1 0 1 2 4 6 8 9 8 5
-6 -6 -6 -7 -7 -7 -7 -7 -7 -7 -7 -8 -8 -8 -9 -9 -9 -9 -10 -11 -10 -8 -5 -7 -9 -10 -11 -12 -13 -13 -14 -15 -13 -11 -11 -7 -5 -7 -18 -12 -1 5 -3 -9 -7 -4 -6 -6 -5 -6 -9 -10 -10 -11 -10 -10 -10 -8 -7 -4 -1 0 -1 -5 -7 -8 -8 -8 -8 -8 -8 -8 -7 -5 -2 1 2 3 2 -1 -3 -4 -2 1 3 4 3 2 2 2 2 1 0 -1 -2 -2 -2 0 3 8 9 8 5
-5 -5 -6 -6 -7 -7 -7 -7 -7 -7 -7 -7 -8 -8 -9 -10 -9 -8 -8 -9 -10 -10 -7 -6 -6 -8 -7 -11 -14 -16 -15 -15 -14 -13 -12 -16 -9 -1 -1 -19 -18 -8 6 -0 -2 -3 -4 -5 -5 -5 -6 -8 -10 -10 -10 -10 -10 -9 -7 -5 -1 0 -1 -5 -8 -8 -8 -7 -7 -6 -6 -6 -6 -5 -3 -0 2 3 2 1 -1 -2 -2 0 2 4 3 3 3 3 3 3 2 0 -1 -2 -1 -0 3 6 7 5 3
-5 -5 -5 -6 -6 -7 -7 -6 -6 -6 -6 -7 -7 -8 -8 -9 -9 -9 -8 -6 -6 -7 -8 -4 -4 -6 -9 -8 -11 -15 -18 -15 -14 -12 -8 -11 -15 -12 9 7 -5 -14 -5 1 2 2 3 -2 -3 -4 -5 -7 -8 -9 -10 -10 -10 -10 -8 -6 -4 -2 -1 -5 -8 -9 -8 -7 -7 -6 -5 -5 -4 -4 -2 -1 1 2 3 2 1 -1 -1 1 2 3 4 3 4 4 5 5 5 3 1 0 -0 0 1 3 4 3 2
-6 -6 -6 -6 -6 -6 -7 -6 -6 -6 -6 -6 -7 -7 -8 -7 -8 -8 -9 -7 -5 -5 -7 -5 -2 -1 -8 -12 -12 -12 -17 -16 -13 -11 -14 -3 -8 -17 -19 7 12 4 -10 -6 -5 -2 3 2 -1 -2 -2 -7 -9 -10 -10 -11 -11 -11 -10 -9 -7 -5 -3 -5 -7 -9 -9 -8 -7 -6 -5 -4 -3 -2 -2 -1 1 2 3 3 2 1 1 2 3 3 4 4 4 5 6 7 7 6 5 3 2 1 1 2 3 3 3
-6 -6 -7 -7 -6 -6 -6 -6 -6 -6 -6 -6 -6 -7 -7 -8 -8 -8 -9 -10 -9 -7 -6 -10 -7 -1 3 -8 -13 -14 -14 -19 -14 -10 -18 -14 -7 -8 -32 -27 -10 5 3 1 -1 -3 -4 1 1 -1 -1 -4 -8 -11 -11 -11 -11 -12 -12 -11 -10 -8 -5 -5 -6 -8 -8 -7 -6 -6 -5 -4 -3 -2 -1 -0 1 2 3 4 3 3 2 3 3 4 4 4 4 4 5 6 8 8 6 4 2 1 1 2 3 4 4
-6 -5 -6 -6 -6 -6 -5 -5 -5 -5 -6 -6 -7 -7 -7 -8 -9 -9 -8 -9 -10 -10 -6 -8 -11 -10 -0 0 -6 -11 -9 -16 -16 -13 -10 -22 -15 -4 -4 -25 -25 -10 13 14 15 13 2 1 4 5 -2 -2 -4 -7 -11 -11 -11 -11 -12 -12 -11 -10 -6 -5 -5 -7 -7 -6 -6 -5 -4 -3 -2 -2 -1 0 1 2 4 4 4 4 4 4 4 4 4 4 4 4 4 5 6 6 4 2 1 1 1 1 2 2 3
-6 -6 -5 -5 -6 -6 -5 -5 -5 -5 -5 -6 -7 -8 -8 -7 -8 -9 -8 -7 -8 -8 -6 -3 -5 -9 -10 -2 -3 -8 -11 -11 -14 -15 -6 -15 -20 -14 7 4 -15 -34 -33 -24 -9 6 20 5 5 8 8 -1 -4 -5 -8 -10 -11 -11 -11 -11 -12 -11 -8 -5 -4 -5 -7 -6 -5 -4 -4 -3 -2 -2 -1 1 2 3 4 5 5 5 5 4 4 4 4 4 4 4 4 5 5 4 2 0 -0 1 1 1 1 2 3
-5 -5 -6 -6 -6 -6 -6 -6 -5 -5 -4 -4 -5 -7 -8 -7 -7 -8 -9 -8 -8 -8 -9 -6 -3 -2 -8 -5 -3 -6 -16 -13 -14 -13 -10 -7 -17 -27 -28 -4 -4 -18 -40 -45 -46 -37 -7 4 2 0 12 5 -1 -5 -6 -9 -11 -11 -11 -11 -11 -11 -9 -5 -4 -4 -6 -6 -5 -4 -3 -3 -2 -2 -1 1 2 3 4 5 6 6 6 5 4 4 4 4 4 4 4 5 6 5 3 1 0 0 0 -0 0 1 2
-5 -5 -5 -5 -6 -6 -6 -6 -6 -5 -4 -3 -3 -4 -6 -6 -7 -8 -8 -9 -9 -9 -9 -9 -6 -2 -3 -6 -2 0 -6 -12 -14 -15 -17 -7 -5 -14 -36 -29 -9 11 18 10 -8 -27 -38 -18 -4 2 4 6 3 -1 -6 -8 -10 -10 -10 -10 -11 -11 -10 -7 -4 -3 -5 -5 -5 -4 -3 -2 -2 -1 -1 0 2 3 4 5 6 6 6 6 5 5 5 6 6 6 6 6 6 6 5 3 1 0 -0 -0 -1 -1 0
-5 -5 -4 -5 -6 -6 -6 -5 -5 -5 -5 -4 -4 -4 -5 -5 -6 -6 -7 -7 -7 -7 -6 -8 -7 -4 0 -5 -5 -3 2 -3 -6 -9 -16 -18 -7 2 -4 -21 -28 -26 -18 -5 2 1 -13 -23 -17 -3 12 7 3 0 -2 -7 -9 -9 -9 -9 -10 -11 -10 -8 -5 -4 -4 -4 -4 -4 -3 -2 -2 -1 -1 0 1 3 4 5 6 6 7 7 6 6 6 7 7 7 7 7 8 8 7 5 3 2 2 1 1 0 0
-4 -5 -6 -5 -6 -6 -6 -5 -5 -4 -5 -4 -4 -4 -5 -5 -5 -5 -5 -6 -7 -6 -6 -8 -9 -8 -2 -1 -4 -7 -5 -5 -3 -1 -2 -16 -20 -13 1 -5 -18 -32 -44 -46 -37 -24 -9 -9 -17 -19 -2 10 7 -0 -1 -4 -7 -9 -9 -9 -9 -9 -9 -8 -6 -4 -4 -4 -4 -3 -3 -2 -2 -1 -0 0 1 2 4 5 6 6 6 7 7 7 7 7 7 8 8 9 10 10 9 8 6 4 3 3 3 3 3
-4 -5 -6 -6 -6 -5 -6 -5 -5 -4 -4 -4 -4 -4 -5 -5 -5 -6 -7 -7 -8 -7 -5 -4 -6 -9 -9 -3 -1 -2 -5 -6 -7 -5 4 -0 -11 -18 -15 -4 -0 -1 -4 -13 -21 -27 -28 -15 -11 -14 -20 3 12 9 -2 -2 -4 -6 -7 -8 -8 -8 -8 -8 -6 -4 -3 -4 -4 -3 -3 -2 -1 -1 -0 0 1 2 4 4 5 5 6 6 6 7 7 7 7 7 8 9 10 11 12 10 8 6 4 4 4 5 5
-5 -5 -6 -6 -6 -6 -5 -4 -4 -4 -4 -4 -4 -4 -5 -5 -5 -6 -7 -8 -8 -8 -6 -4 -4 -6 -9 -8 -5 -3 -3 -2 -4 -7 -6 3 5 -0 -11 -7 -3 1 0 -0 -4 -10 -20 -26 -21 -16 -17 -11 4 17 11 0 -4 -4 -4 -5 -7 -8 -8 -8 -6 -4 -2 -3 -3 -3 -2 -2 -1 -1 -0 1 1 2 3 4 4 5 5 5 6 7 8 7 7 8 8 8 9 10 10 10 9 8 6 6 6 6 6
-5 -5 -6 -6 -6 -6 -5 -4 -4 -3 -3 -4 -4 -4 -5 -5 -5 -4 -5 -6 -6 -7 -7 -7 -6 -5 -6 -8 -8 -7 -8 -7 -4 -2 -5 -5 -0 4 2 -7 -7 -5 -3 -5 -6 -6 -8 -15 -21 -24 -20 -21 -13 1 19 11 2 -4 -5 -4 -5 -6 -8 -7 -6 -4 -2 -3 -3 -3 -2 -2 -1 -1 0 1 1 2 3 4 4 5 5 5 6 7 7 7 7 7 7 7 8 8 8 8 7 7 6 6 6 6 6
-5 -6 -6 -7 -6 -5 -5 -4 -4 -3 -3 -3 -4 -4 -4 -5 -5 -4 -4 -5 -5 -5 -4 -5 -6 -6 -5 -6 -7 -6 -6 -9 -9 -7 -2 -5 -5 -3 4 1 -3 -4 -1 1 1 -0 -2 -4 -9 -15 -21 -20 -19 -14 -1 10 9 2 -2 -4 -4 -4 -6 -7 -6 -4 -3 -3 -3 -3 -2 -2 -1 -1 0 1 2 2 3 4 5 5 6 5 5 5 4 4 4 5 4 5 6 7 8 8 8 8 8 7 7 7 7
-4 -5 -5 -6 -6 -6 -4 -4 -4 -4 -3 -3 -3 -4 -3 -3 -4 -5 -5 -6 -7 -7 -5 -4 -4 -6 -7 -6 -7 -6 -5 -4 -6 -8 -6 -4 -4 -4 -1 3 3 1 -2 -2 -1 -0 -1 -3 -5 -7 -10 -15 -16 -15 -11 -2 3 5 4 2 -0 -2 -4 -6 -5 -4 -3 -3 -2 -2 -2 -2 -1 -0 1 1 2 2 3 4 5 5 6 5 4 4 3 3 3 3 4 5 7 8 10 10 10 10 9 10 10 11 10
Height
5829 5828 5827 5826 5825 5825 5824 5824 5823 5822 5821 5821 5820 5820 5819 5819 5818 5817 5817 5816 5816 5815 5815 5815 5814 5814 5813 5813 5813 5812 5812 5812 5811 5811 5811 5810 5810 5810 5809 5809 5809 5808 5808 5807 5807 5807 5807 5807 5806 5806 5806 5806 5806 5806 5806 5806 5806 5806 5805 5805 5805 5804 5803 5803 5803 5803 5803 5803 5804 5804 5804 5804 5805 5806 5807 5808 5809 5810 5811 5812 5813 5814 5815 5816 5817 5818 5819 5820 5820 5821 5822 5823 5824 5825 5827 5828 5829 5830 5832 5833 5835 5836 5837
5826 5826 5825 5824 5823 5822 5822 5821 5820 5820 5819 5818 5818 5817 5816 5816 5815 5815 5814 5813 5813 5812 5812 5811 5811 5810 5810 5810 5809 5809 5809 5808 5808 5808 5808 5807 5807 5807 5806 5806 5805 5805 5805 5804 5804 5804 5804 5803 5803 5802 5802 5802 5802 5802 5802 5802 5802 5802 5802 5801 5801 5800 5800 5800 5799 5799 5799 5799 5799 5799 5800 5800 5800 5801 5802 5803 5804 5805 5806 5807 5808 5810 5811 5812 5813 5814 5815 5816 5817 5818 5819 5819 5820 5821 5823 5824 5825 5827 5828 5830 5831 5833 5834
5824 5823 5823 5822 5821 5820 5819 5819 5818 5817 5816 5815 5815 5815 5814 5813 5812 5812 5811 5810 5810 5810 5809 5808 5808 5807 5807 5806 5806 5805 5805 5805 5805 5804 5804 5804 5803 5803 5803 5802 5802 5802 5801 5801 5800 5800 5800 5800 5799 5799 5799 5799 5799 5798 5798 5798 5798 5798 5798 5797 5797 5797 5796 5796 5795 5795 5794 5794 5794 5795 5795 5795 5796 5796 5797 5798 5799 5800 5801 5803 5804 5805 5806 5808 5809 5810 5811 5812 5813 5814 5815 5815 5816 5817 5819 5820 5822 5823 5824 5825 5827 5829 5830
5822 5821 5820 5819 5819 5818 5817 5816 5815 5815 5814 5813 5812 5812 5811 5810 5810 5809 5808 5808 5807 5806 5806 5805 5805 5804 5803 5803 5802 5802 5801 5801 5800 5800 5800 5800 5799 5799 5799 5798 5798 5798 5797 5797 5796 5796 5796 5796 5795 5795 5795 5795 5795 5795 5795 5794 5794 5794 5793 5793 5793 5792 5792 5792 5791 5791 5790 5790 5789 5790 5790 5790 5791 5791 5792 5793 5794 5795 5796 5798 5799 5800 5802 5803 5804 5805 5807 5808 5809 5810 5811 5811 5812 5813 5815 5816 5817 5819 5820 5822 5823 5825 5826
5820 5819 5818 5817 5816 5815 5814 5813 5813 5812 5811 5810 5810 5809 5808 5807 5807 5806 5805 5805 5804 5803 5802 5801 5801 5800 5800 5799 5798 5798 5797 5797 5796 5796 5795 5795 5795 5795 5794 5794 5793 5793 5793 5792 5792 5792 5791 5792 5791 5790 5790 5790 5790 5790 5790 5790 5790 5790 5789 5789 5788 5788 5788 5787 5787 5786 5786 5786 5785 5785 5785 5785 5785 5786 5787 5788 5789 5790 5791 5792 5794 5795 5797 5798 5800 5801 5802 5803 5805 5805 5806 5807 5808 5809 5810 5812 5813 5815 5816 5818 5819 5820 5822
5817 5816 5815 5815 5814 5813 5812 5811 5810 5809 5808 5808 5807 5806 5805 5805 5804 5803 5802 5801 5800 5800 5799 5798 5797 5796 5795 5795 5794 5793 5793 5792 5792 5791 5791 5790 5790 5790 5789 5789 5789 5788 5788 5787 5787 5786 5786 5786 5785 5785 5785 5785 5785 5785 5785 5785 5785 5785 5785 5784 5784 5784 5783 5783 5782 5782 5781 5781 5781 5781 5780 5780 5780 5780 5781 5783 5784 5785 5786 5787 5789 5790 5792 5793 5795 5796 5797 5799 5800 5801 5802 5803 5804 5805 5806 5808 5809 5810 5812 5814 5815 5816 5818
5815 5814 5813 5812 5811 5810 5809 5808 5807 5807 5805 5805 5804 5803 5802 5801 5800 5800 5799 5798 5797 5796 5795 5794 5793 5792 5791 5790 5790 5789 5788 5787 5787 5786 5786 5785 5785 5784 5784 5784 5783 5783 5782 5782 5781 5781 5780 5780 5780 5780 5779 5779 5779 5779 5779 5779 5779 5779 5779 5779 5779 5779 5779 5778 5777 5777 5777 5777 5777 5776 5776 5775 5775 5775 5775 5777 5778 5779 5780 5782 5783 5785 5786 5788 5789 5790 5792 5794 5795 5796 5798 5799 5800 5801 5802 5803 5805 5806 5808 5809 5811 5812 5814
5812 5811 5810 5810 5809 5808 5807 5806 5805 5804 5803 5802 5801 5800 5799 5798 5797 5796 5795 5794 5793 5792 5791 5790 5789 5788 5787 5786 5785 5784 5783 5783 5782 5781 5780 5780 5780 5779 5779 5778 5778 5777 5776 5776 5775 5775 5775 5774 5774 5773 5773 5773 5773 5772 5772 5772 5772 5772 5772 5772 5772 5773 5772 5772 5772 5772 5772 5771 5771 5771 5771 5770 5770 5770 5770 5770 5772 5773 5775 5776 5777 5778 5780 5781 5783 5785 5787 5788 5790 5791 5793 5794 5795 5796 5797 5799 5800 5801 5803 5805 5806 5808 5810
5810 5809 5808 5807 5806 5805 5804 5803 5802 5801 5800 5799 5797 5796 5795 5794 5793 5792 5791 5790 5789 5788 5787 5786 5785 5784 5782 5781 5780 5779 5778 5778 5777 5776 5775 5775 5774 5774 5773 5772 5772 5771 5770 5770 5769 5769 5768 5767 5767 5766 5766 5766 5766 5765 5765 5765 5765 5765 5764 5765 5765 5765 5765 5765 5766 5766 5766 5766 5766 5765 5765 5765 5765 5765 5765 5765 5766 5767 5768 5770 5771 5772 5774 5775 5777 5779 5781 5783 5785 5786 5788 5789 5790 5791 5793 5794 5795 5797 5798 5800 5801 5803 5805
5807 5806 5805 5804 5803 5802 5801 5800 5799 5798 5797 5795 5794 5793 5792 5790 5789 5788 5787 5786 5785 5784 5783 5781 5780 5779 5778 5777 5775 5775 5774 5773 5771 5771 5770 5769 5768 5768 5767 5766 5766 5765 5764 5764 5763 5762 5761 5760 5760 5759 5759 5759 5758 5758 5758 5757 5757 5756 5756 5756 5756 5757 5757 5758 5758 5759 5759 5759 5760 5759 5759 5759 5760 5760 5760 5760 5760 5760 5761 5763 5764 5766 5767 5769 5771 5773 5775 5777 5779 5780 5782 5784 5785 5786 5788 5789 5790 5792 5794 5795 5797 5799 5800
5805 5804 5803 5801 5800 5799 5798 5797 5796 5795 5793 5792 5791 5790 5788 5787 5785 5784 5783 5782 5780 5780 5778 5777 5776 5775 5774 5772 5771 5770 5769 5767 5766 5765 5764 5763 5762 5761 5761 5760 5759 5759 5758 5757 5756 5755 5754 5753 5752 5752 5751 5751 5750 5750 5750 5749 5749 5748 5747 5747 5747 5748 5748 5749 5750 5750 5751 5751 5752 5752 5753 5753 5753 5754 5754 5754 5754 5754 5755 5755 5757 5759 5761 5763 5765 5766 5768 5770 5773 5775 5776 5778 5780 5781 5783 5784 5785 5787 5789 5790 5792 5794 5795
5802 5801 5800 5799 5797 5796 5795 5794 5792 5791 5790 5789 5787 5786 5785 5783 5782 5780 5779 5778 5776 5775 5774 5773 5771 5770 5769 5768 5766 5765 5764 5762 5761 5760 5759 5758 5756 5755 5755 5754 5753 5752 5751 5750 5749 5748 5747 5746 5745 5744 5743 5743 5742 5741 5741 5740 5740 5739 5738 5738 5738 5738 5739 5739 5740 5740 5742 5742 5743 5744 5745 5745 5746 5747 5747 5748 5748 5748 5748 5749 5750 5752 5754 5756 5758 5760 5762 5764 5766 5768 5770 5772 5774 5775 5777 5779 5780 5782 5784 5785 5787 5789 5790
5799 5798 5797 5795 5794 5793 5792 5790 5789 5788 5786 5785 5784 5782 5781 5779 5778 5776 5775 5774 5772 5771 5770 5768 5767 5765 5764 5763 5761 5760 5759 5757 5756 5755 5753 5752 5750 5749 5748 5747 5746 5745 5744 5743 5742 5740 5739 5738 5737 5736 5735 5734 5734 5733 5732 5731 5730 5730 5728 5728 5728 5728 5728 5729 5729 5730 5731 5732 5733 5735 5735 5737 5738 5739 5740 5740 5740 5741 5741 5742 5743 5744 5746 5749 5751 5753 5755 5757 5759 5761 5764 5766 5768 5770 5771 5773 5775 5777 5778 5780 5782 5784 5785
5796 5795 5794 5793 5791 5790 5789 5787 5786 5785 5783 5781 5780 5778 5777 5775 5774 5772 5771 5770 5768 5767 5765 5764 5762 5761 5760 5758 5757 5755 5754 5752 5751 5749 5748 5746 5745 5743 5742 5740 5739 5738 5737 5735 5734 5732 5731 5730 5729 5727 5726 5725 5725 5724 5723 5722 5721 5720 5719 5718 5718 5717 5718 5718 5718 5719 5720 5721 5722 5724 5725 5727 5728 5730 5731 5732 5733 5734 5734 5735 5735 5737 5738 5741 5743 5746 5748 5750 5752 5755 5757 5760 5762 5763 5765 5767 5769 5771 5773 5775 5777 5778 5780
5793 5792 5791 5790 5788 5787 5785 5784 5782 5781 5780 5778 5776 5775 5773 5771 5770 5768 5767 5765 5764 5762 5761 5759 5758 5756 5755 5754 5752 5750 5749 5747 5745 5744 5742 5741 5739 5737 5736 5734 5733 5731 5730 5728 5726 5725 5723 5722 5720 5719 5717 5716 5715 5714 5713 5712 5710 5709 5708 5707 5706 5706 5706 5706 5706 5707 5708 5709 5710 5712 5714 5715 5717 5719 5721 5723 5724 5725 5726 5727 5728 5729 5731 5733 5735 5738 5740 5743 5745 5747 5750 5753 5755 5757 5759 5761 5764 5765 5767 5770 5771 5773 5775
5790 5789 5788 5786 5785 5784 5782 5780 5779 5777 5776 5774 5773 5771 5769 5768 5766 5764 5762 5761 5759 5758 5756 5755 5753 5752 5750 5749 5747 5746 5744 5742 5740 5739 5737 5735 5733 5732 5730 5728 5726 5724 5722 5720 5719 5717 5715 5713 5711 5710 5708 5706 5705 5704 5702 5701 5700 5698 5697 5695 5695 5694 5694 5694 5694 5695 5695 5696 5698 5699 5701 5703 5705 5707 5710 5712 5714 5716 5717 5719 5720 5721 5723 5725 5727 5730 5732 5735 5738 5740 5743 5745 5748 5751 5753 5755 5758 5760 5762 5764 5766 5767 5769
5788 5786 5785 5783 5782 5780 5779 5777 5775 5774 5772 5770 5769 5767 5765 5764 5762 5760 5758 5756 5755 5753 5751 5750 5748 5747 5745 5744 5742 5741 5739 5737 5735 5734 5732 5730 5728 5726 5724 5721 5719 5717 5715 5713 5711 5709 5707 5705 5703 5701 5699 5697 5695 5693 5692 5690 5689 5687 5685 5684 5682 5681 5681 5680 5680 5681 5682 5683 5684 5685 5688 5690 5692 5695 5697 5700 5703 5705 5707 5710 5711 5713 5715 5716 5719 5721 5724 5727 5730 5733 5735 5738 5741 5744 5747 5749 5752 5754 5756 5758 5760 5762 5764
5785 5784 5782 5780 5779 5777 5775 5774 5772 5770 5768 5767 5765 5763 5761 5760 5758 5756 5754 5752 5751 5749 5747 5745 5744 5742 5740 5739 5737 5735 5734 5732 5730 5728 5726 5724 5722 5720 5717 5715 5713 5710 5708 5705 5703 5701 5699 5697 5695 5692 5690 5688 5685 5683 5681 5679 5677 5675 5672 5671 5669 5668 5667 5667 5666 5667 5667 5668 5669 5671 5673 5675 5678 5681 5684 5687 5690 5693 5696 5699 5701 5704 5705 5708 5710 5712 5715 5718 5721 5725 5727 5730 5734 5736 5740 5743 5745 5747 5750 5752 5754 5756 5758
5782 5781 5779 5778 5776 5774 5772 5770 5769 5767 5765 5763 5761 5759 5758 5756 5754 5752 5750 5749 5747 5745 5743 5741 5740 5738 5736 5734 5732 5730 5728 5726 5724 5722 5720 5718 5716 5714 5711 5708 5706 5703 5700 5698 5695 5693 5690 5688 5685 5683 5680 5678 5675 5673 5670 5668 5665 5662 5660 5657 5655 5654 5653 5652 5652 5652 5652 5653 5654 5655 5657 5660 5663 5665 5669 5672 5676 5680 5683 5687 5690 5693 5696 5698 5701 5703 5706 5709 5712 5716 5719 5722 5725 5729 5732 5735 5738 5741 5743 5745 5748 5750 5753
5780 5778 5776 5775 5773 5771 5769 5767 5765 5763 5761 5760 5758 5756 5754 5752 5750 5748 5746 5745 5743 5741 5739 5737 5735 5733 5731 5729 5727 5725 5723 5720 5718 5716 5714 5711 5709 5706 5704 5701 5699 5696 5693 5690 5687 5685 5681 5679 5676 5674 5670 5668 5665 5662 5659 5655 5652 5649 5646 5644 5642 5640 5639 5638 5637 5637 5637 5637 5638 5640 5641 5644 5646 5650 5653 5657 5661 5665 5670 5674 5678 5682 5685 5688 5691 5694 5696 5700 5703 5706 5710 5714 5717 5720 5724 5727 5730 5734 5736 5739 5742 5745 5747
5776 5775 5773 5771 5769 5768 5766 5764 5762 5760 5758 5756 5754 5752 5750 5749 5747 5745 5743 5741 5739 5737 5735 5733 5731 5729 5726 5724 5722 5720 5717 5715 5712 5710 5707 5705 5702 5700 5697 5694 5691 5688 5685 5682 5679 5676 5673 5670 5666 5663 5660 5657 5654 5650 5647 5643 5639 5636 5632 5630 5627 5625 5624 5623 5622 5622 5621 5622 5623 5624 5626 5628 5630 5633 5637 5641 5645 5650 5655 5660 5664 5669 5673 5677 5680 5683 5687 5690 5693 5696 5700 5705 5708 5712 5715 5719 5723 5726 5730 5732 5735 5738 5741
5773 5771 5769 5768 5766 5764 5762 5760 5759 5756 5755 5753 5751 5749 5747 5745 5743 5741 5739 5737 5735 5733 5730 5728 5726 5724 5721 5719 5717 5714 5712 5709 5707 5704 5701 5699 5696 5693 5690 5686 5683 5680 5677 5674 5670 5667 5663 5660 5656 5652 5649 5645 5641 5637 5634 5630 5626 5622 5619 5615 5613 5611 5610 5609 5608 5607 5606 5607 5607 5609 5610 5612 5615 5618 5621 5625 5629 5634 5639 5645 5650 5655 5660 5664 5669 5672 5676 5680 5683 5686 5690 5695 5699 5703 5707 5710 5714 5718 5722 5725 5728 5731 5734
5770 5768 5766 5764 5762 5761 5759 5757 5755 5753 5751 5750 5748 5745 5744 5742 5740 5737 5735 5733 5731 5728 5726 5724 5721 5719 5716 5714 5711 5709 5706 5704 5701 5698 5695 5692 5689 5686 5682 5679 5675 5672 5669 5665 5661 5657 5654 5650 5645 5641 5636 5632 5628 5624 5620 5616 5612 5608 5605 5602 5599 5597 5595 5594 5594 5593 5592 5592 5593 5594 5595 5597 5599 5602 5605 5609 5614 5618 5624 5629 5635 5640 5645 5651 5656 5661 5665 5669 5672 5676 5680 5685 5689 5694 5697 5701 5706 5710 5714 5718 5721 5724 5727
5767 5765 5763 5761 5760 5758 5756 5754 5752 5750 5748 5746 5744 5742 5740 5738 5736 5734 5731 5729 5727 5724 5721 5719 5716 5714 5711 5709 5706 5703 5700 5698 5695 5692 5689 5686 5682 5679 5675 5672 5668 5664 5660 5656 5652 5648 5643 5639 5634 5629 5624 5619 5614 5610 5606 5602 5598 5594 5591 5588 5585 5583 5582 5581 5580 5580 5579 5579 5579 5580 5580 5582 5584 5587 5590 5594 5598 5603 5608 5613 5619 5625 5631 5637 5643 5648 5653 5658 5662 5666 5670 5675 5679 5684 5688 5692 5697 5701 5705 5709 5713 5716 5720
5764 5762 5760 5758 5756 5755 5753 5751 5749 5747 5745 5743 5741 5739 5736 5734 5732 5730 5727 5725 5722 5720 5717 5714 5711 5709 5706 5703 5700 5698 5695 5692 5689 5685 5683 5679 5676 5672 5668 5665 5660 5656 5652 5647 5643 5638 5632 5627 5621 5616 5610 5605 5600 5595 5592 5588 5584 5580 5577 5575 5572 5570 5569 5568 5567 5567 5566 5566 5566 5566 5567 5568 5570 5572 5575 5579 5583 5587 5592 5598 5604 5610 5616 5622 5628 5635 5640 5645 5650 5655 5659 5664 5669 5674 5679 5683 5687 5692 5697 5701 5705 5708 5712
5761 5759 5757 5755 5754 5752 5750 5748 5746 5744 5742 5740 5737 5735 5732 5730 5728 5725 5723 5720 5718 5715 5712 5710 5707 5704 5701 5698 5695 5692 5690 5686 5683 5679 5676 5673 5669 5665 5661 5657 5653 5649 5644 5638 5633 5627 5621 5615 5609 5603 5597 5591 5586 5582 5578 5574 5570 5567 5564 5562 5560 5558 5557 5556 5555 5555 5555 5554 5554 5554 5555 5555 5556 5558 5561 5564 5568 5572 5577 5582 5588 5594 5600 5607 5614 5620 5626 5633 5638 5643 5648 5653 5658 5663 5668 5673 5678 5683 5688 5692 5696 5700 5704
5758 5756 5755 5753 5751 5749 5747 5745 5742 5740 5738 5736 5734 5731 5729 5726 5724 5721 5718 5716 5713 5710 5707 5705 5702 5699 5696 5693 5690 5687 5684 5681 5677 5673 5670 5666 5662 5658 5654 5650 5645 5640 5635 5629 5623 5616 5610 5603 5596 5590 5583 5577 5572 5568 5564 5560 5557 5554 5551 5549 5547 5546 5545 5544 5543 5543 5543 5543 5542 5542 5542 5543 5544 5545 5547 5550 5553 5558 5562 5567 5572 5579 5585 5591 5598 5605 5612 5619 5625 5631 5637 5642 5647 5652 5658 5663 5668 5673 5678 5683 5688 5692 5695
5755 5754 5751 5750 5748 5745 5744 5741 5739 5737 5735 5732 5730 5727 5725 5722 5719 5716 5714 5711 5708 5705 5702 5700 5697 5694 5691 5688 5685 5682 5679 5675 5671 5667 5663 5659 5655 5651 5646 5642 5636 5631 5626 5620 5613 5606 5599 5591 5584 5577 5571 5565 5559 5555 5550 5547 5544 5541 5539 5537 5535 5534 5533 5532 5532 5531 5531 5531 5531 5531 5531 5531 5532 5532 5534 5536 5539 5543 5547 5552 5557 5563 5569 5575 5583 5590 5597 5605 5612 5619 5625 5630 5636 5641 5646 5652 5658 5663 5668 5673 5678 5683 5687
5752 5750 5748 5746 5744 5742 5740 5738 5735 5733 5730 5728 5725 5723 5720 5718 5715 5712 5709 5706 5704 5700 5698 5695 5692 5689 5685 5683 5680 5676 5673 5670 5665 5661 5657 5652 5648 5643 5638 5633 5628 5622 5616 5610 5603 5595 5588 5580 5572 5565 5559 5553 5547 5542 5538 5534 5531 5529 5526 5525 5523 5522 5521 5521 5520 5520 5520 5520 5520 5520 5520 5520 5520 5521 5522 5523 5526 5529 5533 5537 5542 5547 5553 5560 5567 5574 5582 5590 5598 5605 5612 5618 5624 5630 5635 5641 5647 5652 5658 5663 5669 5674 5678
5749 5747 5745 5743 5741 5739 5736 5734 5732 5729 5727 5724 5721 5719 5716 5713 5710 5707 5705 5702 5699 5696 5693 5690 5687 5684 5680 5677 5674 5670 5667 5664 5660 5655 5650 5645 5640 5635 5630 5625 5619 5612 5606 5600 5592 5584 5577 5569 5562 5554 5548 5542 5536 5531 5526 5523 5520 5517 5515 5513 5511 5510 5510 5509 5509 5508 5508 5508 5509 5509 5509 5509 5509 5510 5510 5511 5513 5515 5519 5523 5528 5533 5538 5544 5551 5559 5567 5575 5583 5591 5598 5605 5612 5618 5624 5630 5636 5642 5647 5653 5659 5664 5669
5746 5744 5742 5739 5737 5735 5732 5730 5728 5725 5723 5720 5717 5714 5711 5709 5706 5703 5700 5697 5694 5691 5688 5685 5681 5678 5675 5672 5668 5665 5661 5657 5653 5649 5644 5639 5633 5627 5622 5616 5610 5603 5596 5589 5581 5574 5566 5559 5552 5544 5537 5531 5526 5520 5516 5512 5509 5506 5504 5501 5499 5498 5497 5497 5496 5496 5496 5496 5496 5496 5497 5497 5497 5498 5499 5500 5501 5503 5506 5510 5515 5519 5524 5530 5536 5544 5551 5560 5568 5576 5584 5592 5599 5606 5612 5618 5625 5631 5637 5643 5648 5654 5660
5743 5740 5738 5736 5733 5731 5729 5726 5724 5721 5718 5715 5713 5710 5707 5704 5701 5698 5695 5692 5689 5686 5682 5679 5676 5673 5670 5666 5663 5659 5655 5651 5647 5642 5637 5632 5626 5620 5613 5607 5600 5593 5586 5578 5571 5563 5555 5549 5542 5535 5528 5522 5516 5511 5506 5502 5498 5495 5493 5490 5488 5486 5485 5485 5484 5484 5483 5483 5483 5483 5484 5484 5485 5486 5486 5488 5489 5491 5494 5497 5501 5506 5510 5516 5522 5529 5536 5544 5553 5561 5569 5578 5585 5593 5600 5606 5613 5620 5626 5632 5638 5644 5650
5740 5737 5735 5732 5730 5727 5725 5722 5720 5717 5714 5711 5708 5705 5703 5700 5697 5694 5690 5687 5684 5681 5677 5674 5671 5667 5664 5660 5656 5653 5649 5645 5640 5635 5630 5624 5618 5612 5606 5598 5591 5584 5576 5568 5560 5553 5546 5539 5533 5526 5519 5513 5507 5502 5497 5493 5489 5485 5482 5479 5477 5475 5473 5472 5471 5470 5470 5469 5469 5469 5470 5470 5472 5473 5474 5475 5477 5479 5481 5485 5489 5493 5498 5504 5509 5515 5522 5529 5537 5546 5555 5563 5572 5580 5588 5595 5601 5608 5615 5622 5628 5634 5640
5736 5734 5731 5729 5726 5723 5720 5718 5715 5713 5710 5707 5704 5701 5698 5695 5692 5689 5686 5682 5679 5676 5672 5669 5665 5662 5658 5655 5651 5646 5642 5638 5633 5628 5622 5616 5610 5604 5597 5590 5582 5575 5567 5559 5551 5544 5537 5530 5524 5517 5510 5504 5499 5493 5488 5484 5479 5475 5471 5468 5466 5464 5462 5460 5459 5458 5457 5456 5455 5455 5456 5457 5458 5460 5461 5463 5465 5467 5470 5472 5476 5480 5486 5491 5496 5502 5508 5515 5523 5531 5540 5549 5558 5566 5575 5582 5590 5596 5604 5611 5617 5623 5629
5733 5730 5728 5725 5722 5720 5717 5714 5711 5708 5706 5703 5700 5697 5694 5690 5687 5684 5681 5678 5674 5671 5667 5664 5660 5656 5653 5649 5645 5640 5636 5631 5626 5620 5615 5609 5602 5595 5588 5580 5573 5565 5557 5550 5542 5535 5528 5521 5515 5509 5502 5496 5490 5485 5480 5475 5470 5465 5461 5458 5455 5453 5451 5449 5448 5446 5445 5444 5443 5443 5443 5444 5445 5446 5448 5450 5452 5455 5458 5460 5464 5468 5473 5479 5484 5490 5496 5503 5510 5518 5526 5535 5544 5553 5561 5570 5578 5585 5592 5599 5605 5612 5618
5730 5727 5724 5721 5719 5716 5713 5710 5707 5705 5701 5699 5696 5693 5689 5686 5683 5680 5676 5673 5669 5665 5662 5658 5655 5651 5647 5643 5639 5634 5629 5624 5619 5613 5607 5601 5594 5587 5580 5572 5564 5556 5548 5541 5534 5527 5520 5513 5507 5500 5494 5488 5482 5476 5471 5466 5461 5456 5451 5448 5445 5443 5440 5438 5436 5435 5434 5433 5432 5432 5432 5432 5433 5435 5436 5438 5440 5443 5445 5449 5452 5456 5461 5467 5473 5479 5485 5491 5498 5505 5513 5521 5530 5539 5548 5557 5565 5573 5579 5586 5593 5600 5607
5726 5724 5721 5718 5715 5712 5710 5706 5704 5700 5697 5695 5691 5688 5685 5681 5678 5675 5671 5667 5664 5660 5657 5653 5649 5645 5641 5636 5632 5628 5623 5617 5612 5606 5600 5593 5586 5579 5572 5564 5556 5548 5540 5533 5526 5520 5513 5506 5499 5492 5486 5480 5474 5468 5463 5457 5452 5447 5442 5439 5436 5433 5430 5427 5425 5424 5423 5423 5422 5422 5422 5422 5423 5424 5425 5426 5428 5430 5433 5437 5441 5445 5450 5456 5462 5468 5474 5480 5486 5493 5500 5508 5516 5525 5535 5544 5552 5560 5566 5574 5581 5589 5597
5723 5720 5717 5715 5712 5709 5706 5703 5700 5697 5694 5690 5687 5684 5681 5677 5674 5670 5666 5662 5659 5655 5652 5648 5644 5640 5635 5630 5625 5620 5616 5611 5605 5599 5593 5586 5579 5571 5563 5556 5548 5540 5532 5525 5518 5512 5506 5499 5492 5485 5478 5472 5466 5460 5455 5449 5443 5438 5434 5430 5427 5424 5421 5418 5415 5413 5412 5412 5412 5412 5412 5413 5414 5415 5415 5416 5417 5419 5422 5425 5429 5434 5439 5444 5450 5457 5463 5469 5475 5481 5488 5495 5503 5512 5521 5531 5539 5547 5554 5562 5570 5579 5587
5719 5716 5714 5711 5708 5705 5702 5699 5696 5692 5689 5686 5683 5680 5676 5673 5669 5665 5662 5658 5654 5650 5646 5642 5638 5634 5629 5625 5620 5614 5609 5604 5598 5591 5585 5579 5572 5564 5555 5548 5540 5532 5525 5517 5511 5505 5498 5492 5485 5478 5471 5465 5459 5453 5447 5441 5435 5430 5426 5423 5420 5416 5412 5409 5405 5402 5401 5400 5401 5402 5403 5403 5404 5405 5406 5406 5407 5409 5411 5414 5418 5422 5427 5433 5439 5446 5453 5458 5464 5470 5477 5484 5492 5500 5509 5518 5526 5534 5542 5550 5559 5567 5575
5715 5713 5710 5707 5704 5701 5698 5695 5691 5688 5685 5682 5678 5675 5672 5668 5665 5661 5657 5653 5649 5645 5640 5637 5632 5628 5623 5618 5614 5608 5602 5597 5591 5585 5577 5571 5564 5556 5548 5540 5532 5525 5518 5510 5504 5497 5491 5484 5477 5470 5464 5457 5451 5445 5439 5434 5428 5423 5419 5416 5412 5409 5404 5400 5396 5392 5390 5389 5389 5390 5392 5393 5394 5395 5396 5397 5398 5399 5400 5403 5407 5411 5416 5422 5429 5435 5442 5449 5455 5461 5467 5475 5482 5490 5498 5506 5514 5522 5530 5539 5547 5555 5564
5712 5709 5706 5703 5700 5697 5694 5690 5687 5684 5680 5677 5674 5670 5667 5664 5660 5656 5652 5648 5644 5639 5635 5630 5626 5622 5617 5611 5606 5601 5595 5590 5584 5578 5571 5563 5556 5548 5541 5533 5525 5517 5510 5504 5497 5490 5484 5477 5470 5463 5456 5450 5444 5438 5432 5426 5421 5416 5412 5409 5406 5402 5397 5392 5387 5383 5380 5379 5378 5379 5380 5382 5384 5385 5387 5388 5389 5390 5391 5393 5396 5401 5406 5412 5419 5426 5433 5440 5447 5453 5459 5467 5473 5480 5487 5494 5501 5509 5518 5527 5535 5544 5552
5708 5705 5702 5699 5696 5693 5690 5686 5683 5680 5676 5673 5669 5666 5662 5659 5655 5651 5647 5643 5638 5634 5629 5625 5620 5615 5610 5605 5600 5595 5589 5583 5577 5571 5564 5557 5549 5541 5534 5526 5518 5510 5503 5497 5490 5483 5476 5470 5463 5456 5449 5443 5437 5431 5425 5420 5415 5410 5406 5402 5399 5395 5390 5385 5379 5375 5371 5369 5368 5368 5369 5370 5372 5374 5376 5378 5379 5380 5382 5383 5387 5391 5397 5403 5410 5417 5425 5432 5439 5445 5451 5457 5464 5470 5476 5482 5489 5497 5505 5514 5523 5531 5540
5705 5702 5699 5695 5692 5689 5685 5682 5679 5675 5672 5668 5665 5661 5657 5654 5650 5646 5642 5638 5633 5628 5623 5619 5614 5608 5602 5598 5593 5588 5582 5576 5570 5564 5557 5550 5542 5535 5527 5519 5512 5504 5497 5490 5484 5477 5470 5463 5456 5449 5442 5435 5430 5424 5418 5413 5408 5403 5400 5396 5393 5388 5383 5377 5372 5367 5363 5360 5358 5357 5357 5359 5361 5363 5365 5367 5369 5371 5372 5374 5378 5382 5388 5395 5401 5408 5415 5422 5429 5435 5441 5447 5452 5458 5465 5471 5478 5485 5493 5501 5510 5519 5528
5701 5698 5695 5692 5688 5685 5681 5678 5674 5670 5667 5664 5660 5656 5652 5649 5645 5641 5637 5632 5628 5623 5617 5612 5607 5602 5596 5590 5585 5579 5574 5569 5563 5556 5550 5543 5535 5528 5520 5512 5505 5499 5491 5484 5477 5470 5463 5456 5449 5442 5435 5429 5422 5417 5411 5406 5401 5397 5393 5390 5386 5382 5376 5370 5365 5360 5355 5352 5349 5347 5347 5347 5349 5351 5354 5356 5358 5360 5363 5365 5369 5373 5379 5385 5391 5398 5404 5410 5417 5424 5430 5436 5442 5448 5454 5460 5467 5474 5482 5490 5498 5507 5515
5698 5695 5691 5688 5684 5681 5677 5674 5670 5666 5663 5659 5655 5651 5648 5644 5640 5635 5631 5627 5623 5618 5612 5606 5601 5595 5590 5583 5577 5571 5566 5561 5555 5549 5542 5535 5529 5521 5513 5505 5498 5492 5485 5478 5471 5465 5457 5450 5443 5436 5429 5422 5416 5410 5405 5400 5395 5390 5387 5384 5380 5375 5370 5363 5357 5352 5348 5344 5340 5338 5337 5337 5338 5340 5342 5345 5347 5350 5353 5356 5360 5364 5370 5375 5381 5387 5393 5400 5406 5413 5420 5426 5433 5439 5445 5450 5457 5464 5471 5479 5487 5495 5503
5694 5690 5687 5684 5680 5677 5673 5669 5665 5662 5658 5654 5650 5646 5643 5639 5635 5630 5626 5621 5617 5612 5607 5601 5595 5589 5583 5577 5570 5564 5558 5552 5546 5540 5534 5527 5520 5514 5508 5500 5491 5485 5479 5472 5465 5458 5452 5445 5437 5430 5423 5416 5410 5404 5399 5393 5389 5384 5381 5377 5374 5369 5363 5356 5350 5345 5340 5336 5333 5330 5329 5328 5328 5329 5331 5334 5336 5339 5343 5346 5351 5355 5361 5366 5372 5378 5383 5390 5396 5404 5411 5417 5424 5430 5436 5442 5448 5454 5461 5469 5477 5484 5491
5690 5686 5683 5680 5676 5672 5669 5665 5661 5657 5653 5650 5645 5642 5638 5634 5629 5625 5621 5616 5611 5606 5601 5595 5589 5583 5576 5570 5564 5557 5550 5544 5539 5532 5526 5519 5512 5506 5501 5495 5488 5480 5473 5466 5459 5452 5446 5440 5432 5425 5418 5411 5405 5399 5393 5388 5383 5378 5374 5371 5367 5363 5356 5350 5344 5338 5333 5329 5325 5323 5321 5320 5320 5320 5322 5324 5326 5330 5333 5337 5342 5347 5352 5358 5363 5369 5374 5380 5387 5395 5402 5409 5415 5422 5428 5434 5440 5446 5453 5459 5466 5473 5480
5686 5683 5679 5675 5671 5668 5664 5660 5657 5653 5649 5645 5641 5637 5633 5628 5624 5620 5615 5611 5606 5600 5595 5590 5584 5577 5569 5563 5557 5550 5543 5537 5531 5525 5518 5513 5507 5499 5492 5488 5483 5477 5469 5462 5455 5447 5440 5434 5428 5421 5414 5406 5400 5393 5387 5382 5377 5372 5368 5364 5360 5356 5350 5344 5337 5331 5326 5322 5319 5316 5314 5313 5312 5312 5313 5315 5318 5321 5324 5328 5333 5338 5344 5349 5355 5360 5366 5372 5379 5386 5394 5401 5408 5415 5421 5428 5434 5440 5445 5450 5456 5463 5470
5682 5679 5675 5671 5667 5664 5660 5656 5652 5648 5644 5640 5636 5632 5627 5623 5619 5615 5610 5605 5601 5595 5590 5584 5579 5573 5565 5556 5549 5543 5536 5529 5523 5517 5509 5504 5500 5494 5486 5479 5474 5470 5465 5460 5453 5445 5436 5430 5423 5416 5409 5402 5395 5388 5382 5376 5371 5366 5361 5358 5354 5349 5344 5338 5331 5325 5321 5317 5313 5310 5308 5307 5306 5306 5306 5308 5310 5313 5316 5320 5325 5330 5335 5341 5347 5352 5358 5364 5371 5378 5386 5393 5401 5408 5414 5421 5428 5434 5439 5443 5449 5454 5461
5678 5675 5671 5667 5663 5659 5655 5651 5647 5643 5639 5635 5631 5627 5623 5618 5614 5610 5605 5600 5595 5590 5584 5578 5572 5567 5561 5553 5544 5535 5529 5522 5515 5510 5502 5494 5489 5486 5481 5474 5468 5463 5459 5453 5449 5443 5434 5426 5419 5413 5405 5397 5390 5383 5377 5371 5365 5360 5355 5351 5347 5343 5338 5333 5327 5321 5316 5312 5308 5305 5303 5301 5300 5300 5301 5302 5304 5306 5310 5313 5318 5323 5328 5333 5339 5345 5350 5356 5362 5370 5377 5385 5392 5400 5406 5413 5420 5427 5433 5438 5443 5448 5454
5675 5671 5667 5663 5659 5655 5651 5647 5643 5639 5635 5630 5626 5622 5618 5613 5609 5604 5600 5595 5589 5584 5579 5572 5565 5559 5554 5548 5540 5530 5522 5515 5508 5502 5496 5488 5480 5474 5470 5467 5461 5455 5450 5444 5440 5436 5431 5423 5416 5410 5402 5393 5386 5379 5372 5366 5360 5355 5350 5345 5341 5337 5333 5328 5323 5317 5312 5308 5305 5301 5299 5297 5296 5296 5296 5297 5298 5301 5304 5307 5311 5316 5321 5326 5331 5337 5342 5348 5355 5361 5369 5376 5384 5391 5397 5404 5411 5419 5426 5432 5438 5443 5449
5670 5667 5663 5659 5655 5651 5647 5643 5639 5635 5630 5625 5621 5617 5613 5608 5604 5599 5594 5589 5584 5578 5573 5567 5561 5554 5546 5541 5534 5526 5516 5509 5501 5494 5488 5483 5475 5465 5457 5454 5451 5446 5442 5438 5432 5428 5425 5419 5413 5406 5400 5391 5382 5375 5368 5362 5356 5351 5345 5340 5336 5332 5328 5324 5319 5314 5309 5305 5301 5298 5296 5294 5293 5292 5292 5293 5294 5296 5299 5302 5306 5310 5315 5320 5325 5330 5336 5342 5348 5355 5361 5369 5376 5382 5389 5395 5403 5410 5418 5425 5431 5438 5444
5667 5663 5659 5655 5651 5647 5642 5638 5634 5630 5626 5621 5617 5612 5607 5603 5598 5594 5589 5584 5578 5573 5567 5561 5556 5550 5542 5535 5528 5521 5512 5503 5495 5487 5479 5474 5469 5462 5452 5444 5439 5436 5433 5430 5425 5420 5415 5411 5407 5402 5396 5388 5380 5372 5365 5358 5352 5346 5341 5336 5332 5327 5323 5320 5316 5311 5306 5302 5299 5296 5293 5291 5290 5289 5289 5290 5290 5292 5295 5298 5301 5305 5309 5314 5319 5325 5330 5336 5342 5349 5355 5362 5369 5376 5382 5389 5396 5404 5411 5418 5425 5432 5438
5663 5659 5655 5650 5646 5642 5638 5634 5630 5626 5622 5617 5612 5608 5603 5598 5593 5588 5583 5578 5572 5567 5561 5555 5550 5545 5539 5530 5523 5516 5508 5499 5491 5483 5474 5466 5460 5456 5450 5441 5432 5425 5418 5415 5412 5409 5405 5401 5399 5396 5393 5385 5376 5369 5362 5355 5348 5343 5338 5333 5328 5324 5320 5316 5313 5309 5305 5300 5297 5294 5291 5289 5288 5287 5286 5287 5287 5289 5291 5294 5297 5300 5305 5309 5314 5320 5325 5331 5337 5343 5349 5356 5363 5370 5377 5384 5390 5398 5405 5412 5420 5427 5434
5659 5655 5651 5647 5642 5638 5634 5630 5626 5622 5617 5613 5608 5603 5599 5594 5589 5583 5578 5573 5567 5561 5555 5549 5543 5538 5533 5526 5518 5511 5504 5495 5487 5479 5472 5462 5454 5447 5443 5437 5429 5420 5411 5405 5400 5397 5395 5392 5390 5388 5388 5382 5374 5365 5358 5352 5345 5340 5335 5330 5325 5320 5316 5313 5310 5307 5303 5299 5295 5292 5290 5288 5286 5285 5285 5285 5285 5286 5288 5291 5294 5297 5301 5305 5310 5315 5320 5326 5332 5338 5344 5351 5358 5365 5372 5379 5386 5393 5400 5407 5415 5422 5429
5655 5651 5647 5643 5638 5634 5630 5626 5621 5617 5613 5609 5604 5599 5594 5589 5584 5579 5573 5568 5562 5556 5551 5545 5538 5532 5526 5521 5514 5507 5499 5492 5483 5475 5469 5461 5452 5443 5435 5430 5425 5420 5412 5405 5397 5391 5387 5384 5381 5379 5379 5377 5372 5363 5355 5349 5343 5337 5332 5327 5323 5318 5314 5311 5308 5305 5301 5297 5294 5291 5288 5286 5285 5284 5283 5283 5284 5285 5286 5288 5291 5294 5298 5302 5306 5311 5316 5321 5327 5333 5339 5346 5353 5360 5367 5374 5381 5388 5395 5402 5410 5418 5425
5651 5647 5643 5639 5634 5630 5626 5621 5617 5613 5609 5604 5599 5595 5590 5585 5579 5574 5568 5562 5557 5551 5545 5539 5533 5527 5520 5514 5509 5502 5495 5489 5481 5472 5464 5458 5451 5443 5433 5425 5419 5414 5408 5402 5396 5389 5381 5376 5373 5370 5369 5371 5369 5363 5354 5346 5340 5335 5330 5325 5321 5316 5312 5309 5306 5304 5300 5296 5293 5290 5287 5285 5284 5283 5282 5282 5282 5283 5284 5286 5289 5292 5295 5299 5303 5307 5312 5317 5322 5328 5334 5340 5348 5355 5362 5369 5376 5383 5390 5397 5405 5412 5420
5647 5643 5639 5635 5630 5626 5622 5617 5613 5609 5604 5600 5595 5590 5585 5580 5575 5569 5563 5558 5552 5546 5540 5534 5528 5522 5515 5508 5502 5496 5490 5484 5478 5470 5462 5454 5447 5441 5434 5425 5416 5409 5401 5395 5389 5384 5378 5372 5366 5362 5361 5361 5363 5361 5355 5347 5339 5333 5329 5324 5319 5315 5311 5307 5305 5302 5299 5296 5292 5290 5287 5285 5283 5282 5282 5281 5281 5282 5283 5285 5287 5290 5293 5296 5300 5304 5309 5314 5319 5324 5329 5335 5342 5349 5356 5363 5370 5377 5384 5391 5399 5406 5413
5643 5639 5635 5631 5626 5622 5618 5613 5609 5605 5600 5595 5591 5586 5581 5575 5570 5565 5559 5553 5547 5541 5535 5529 5522 5516 5510 5504 5497 5491 5485 5478 5472 5467 5461 5453 5445 5438 5432 5425 5418 5410 5402 5394 5387 5380 5375 5370 5364 5358 5354 5352 5352 5354 5353 5347 5340 5333 5327 5323 5318 5314 5310 5306 5304 5301 5299 5295 5292 5289 5287 5285 5283 5282 5281 5281 5281 5282 5283 5284 5286 5288 5291 5294 5297 5301 5306 5310 5315 5320 5325 5331 5337 5343 5350 5356 5363 5370 5377 5385 5392 5399 5405
5640 5635 5631 5627 5622 5618 5614 5609 5605 5600 5596 5591 5587 5582 5576 5571 5565 5560 5554 5548 5542 5537 5531 5525 5518 5512 5505 5499 5493 5486 5480 5474 5467 5461 5457 5451 5444 5437 5430 5424 5418 5411 5404 5396 5389 5381 5374 5367 5361 5356 5351 5347 5345 5345 5346 5344 5339 5333 5327 5322 5317 5313 5309 5305 5303 5300 5298 5295 5292 5289 5286 5285 5283 5282 5281 5281 5281 5281 5282 5283 5285 5287 5290 5292 5295 5299 5302 5306 5310 5315 5320 5326 5332 5338 5345 5351 5358 5365 5372 5379 5386 5393 5400
5635 5631 5627 5623 5618 5614 5610 5605 5601 5596 5592 5587 5583 5578 5572 5567 5562 5556 5550 5544 5538 5531 5525 5520 5513 5507 5500 5494 5488 5481 5475 5469 5463 5457 5451 5446 5441 5435 5428 5421 5415 5409 5403 5396 5389 5383 5375 5368 5361 5355 5349 5344 5340 5339 5339 5339 5336 5331 5327 5323 5318 5314 5309 5305 5302 5300 5297 5294 5292 5289 5286 5285 5283 5282 5281 5281 5281 5281 5281 5283 5285 5287 5289 5291 5294 5296 5299 5302 5306 5311 5316 5321 5327 5334 5340 5347 5354 5360 5367 5374 5380 5387 5394